Regional Weather Roundup
Issued by NWS New Orleans/Baton Rouge, LA

Home | Current Version | Previous Version | Text Only | Print | Product List | Glossary On
Versions: 1 2 3 4 5 6 7 8 9 10 11 12 13 14 15 16 17 18 19 20 21 22 23 24 25 26 27 28 29 30 31 32 33 34 35 36 37 38 39 40 41 42 43 44 45 46 47 48 49 50
764
ASUS44 KLIX 181013
RWRLIX
NEW ORLEANS REGIONAL WEATHER ROUNDUP
NATIONAL WEATHER SERVICE NEW ORLEANS LA
400 AM CST SUN FEB 18 2018

NOTE: "FAIR" INDICATES FEW OR NO CLOUDS BELOW 12,000 FEET WITH NO
      SIGNIFICANT WEATHER AND/OR OBSTRUCTIONS TO VISIBILITY.
      SKY/WX - SKY CONDITION AND SIGNIFICANT WEATHER.
      TMP - AIR TEMPERATURE.     DP    - DEWPOINT TEMPERATURE.
      RH  - RELATIVE HUMIDITY.   PRES  - PRESSURE.
      HI  - HEAT INDEX.          WCI   - WIND CHILL INDEX.

*  THESE STATIONS ARE NOT NWS OR FAA STATIONS AND ARE NOT UNDER
   NWS QUALITY CONTROL.

LAZ038-040-048-061>063-065>067-069-181100-
SOUTHEAST LOUISIANA

CITY           SKY/WX    TMP DP  RH WIND       PRES   REMARKS
N.O. INTL ARPT FAIR      65  65 100 S3        30.14S FOG
N.O. LAKEFRONT FAIR      65  64  97 SW7       30.14S FOG
N.O. DOWNTOWN* FAIR      68  65  90 CALM      30.15S
RESERVE*       CLOUDY    67  64  90 NE5       30.14S
SLIDELL        CLOUDY    64  62  93 N5        30.14S
BATON ROUGE    CLOUDY    61  59  93 NE6       30.15S
BOOTHVILLE     NOT AVBL
BELLE CHASSE   FOG       60  60 100 CALM      30.14S VSB 1/4
BOGALUSA*      CLOUDY    62  57  83 NE3       30.16S
GALLIANO*      FOG       61  59  92 CALM      30.14S VSB<1/4
NEW ROADS*     CLOUDY    58  57  96 CALM      30.16S
GONZALES*      NOT AVBL
HAMMOND*       CLOUDY    61  59  94 NE3       30.15S
HOUMA*         HVY RAIN  66  66 100 CALM      30.14S VSB<1/4
PORT FOURCHON* FOG       66  66 100 CALM      30.14F VSB 0

$$

MSZ070-080>082-181100-
SOUTHERN MISSISSIPPI

CITY           SKY/WX    TMP DP  RH WIND       PRES   REMARKS
MCCOMB         CLOUDY    57  53  86 VRB6      30.16S
GULFPORT       MOCLDY    65  63  93 CALM      30.14S
BILOXI         CLOUDY    65  62  91 NE7       30.14R
PASCAGOULA     CLOUDY    65  62  90 N7        30.14S FOG

$$

COASTAL OBSERVATIONS
LAKE AND NEARSHORE STATIONS

STATION/POSITION TIME  SKY/WX   TEMP    WIND        PRES    WAVE
                                AIR SEA DIR/SP/G            HT/PER
                 (UTC)          (F)     (DEG/KT/KT) (MB)    (FT/S)
WAVELAND YACHT   0936            66 69   30/  5/  7 1020.6
GRAND ISLE       0936            67 67  300/  1/  2 1020.8
SOUTHWEST PASS   0936            60 48  250/  3/  3 1021.2
NEW CANAL        0936            66 63  200/  4/  4 1020.5
SHELL BEACH      0936            67 72  270/  4/  5 1020.7

OFFSHORE STATIONS

STATION/POSITION TIME  SKY/WX   TEMP    WIND        PRES    WAVE
                                AIR SEA DIR/SP/G            HT/PER
                 (UTC)          (F)     (DEG/KT/KT) (MB)    (FT/S)
64 S DAUPHIN ISL 0950            71 74  250/  4/  6 1021.1    2/ 6

$$





USA.gov is the U.S. government's official web portal to all federal, state and local government web resources and services.